| time (UTC) | temp C | wind direction | speed KPH | gust KPH | rain 1hr cm | rain 24hr cm | rain mn cm | humidity % | barometer mb |
| 20260502163021 | 16 | 143 | 0.0 | 0.0 | 0.00 | 0.00 | 0.00 | 30 | 1015.9 |
| 20260502161513 | 15 | 145 | 0.0 | 6.4 | 0.00 | 0.00 | 0.00 | 30 | 1016.1 |
| 20260502151511 | 13 | 276 | 0.0 | 3.2 | 0.00 | 0.00 | 0.00 | 34 | 1016.5 |
| 20260502123045 | 2 | 277 | 0.0 | 0.0 | 0.00 | 0.00 | 0.00 | 65 | 1016.9 |
| 20260502121519 | 1 | 277 | 0.0 | 0.0 | 0.00 | 0.00 | 0.00 | 65 | 1016.8 |
| 20260502114601 | 2 | 275 | 0.0 | 0.0 | 0.00 | 0.00 | 0.00 | 61 | 1016.7 |
| 20260502113058 | 2 | 275 | 0.0 | 0.0 | 0.00 | 0.00 | 0.00 | 60 | 1016.6 |
| 20260502111551 | 2 | 276 | 0.0 | 0.0 | 0.00 | 0.00 | 0.00 | 60 | 1016.6 |
| 20260502110047 | 2 | 276 | 0.0 | 0.0 | 0.00 | 0.00 | 0.00 | 60 | 1016.7 |
| 20260502104545 | 2 | 278 | 0.0 | 0.0 | 0.00 | 0.00 | 0.00 | 61 | 1016.7 |
| 20260502103042 | 2 | 258 | 0.0 | 3.2 | 0.00 | 0.00 | 0.00 | 60 | 1016.6 |
| 20260502101544 | 3 | 257 | 0.0 | 0.0 | 0.00 | 0.00 | 0.00 | 60 | 1016.5 |
| 20260502071506 | 6 | 263 | 0.0 | 0.0 | 0.00 | 0.00 | 0.00 | 52 | 1016.9 |
| 20260502070051 | 6 | 263 | 0.0 | 0.0 | 0.00 | 0.00 | 0.00 | 50 | 1016.9 |
| 20260502064550 | 7 | 263 | 0.0 | 0.0 | 0.00 | 0.00 | 0.00 | 48 | 1016.8 |
| 20260502063101 | 7 | 263 | 0.0 | 0.0 | 0.00 | 0.00 | 0.00 | 46 | 1016.6 |
| 20260502061549 | 7 | 263 | 0.0 | 0.0 | 0.00 | 0.00 | 0.00 | 45 | 1016.7 |
| 20260502060042 | 8 | 263 | 0.0 | 0.0 | 0.00 | 0.00 | 0.00 | 44 | 1016.5 |
| 20260502054540 | 8 | 263 | 0.0 | 0.0 | 0.00 | 0.00 | 0.00 | 42 | 1016.4 |
| 20260502053050 | 8 | 264 | 0.0 | 0.0 | 0.00 | 0.00 | 0.00 | 40 | 1016.4 |
| 20260502051536 | 9 | 264 | 0.0 | 1.6 | 0.00 | 0.00 | 0.00 | 41 | 1016.3 |
| 20260502050019 | 10 | 159 | 0.0 | 0.0 | 0.00 | 0.00 | 0.00 | 39 | 1016.3 |
| 20260502044516 | 10 | 154 | 0.0 | 0.0 | 0.00 | 0.00 | 0.00 | 37 | 1016.1 |
| 20260502043017 | 11 | 154 | 0.0 | 0.0 | 0.00 | 0.00 | 0.00 | 37 | 1016.1 |
| 20260502041516 | 11 | 154 | 0.0 | 0.0 | 0.00 | 0.00 | 0.00 | 35 | 1016.0 |
| 20260502040006 | 12 | 154 | 0.0 | 0.0 | 0.00 | 0.00 | 0.00 | 32 | 1016.0 |
| 20260502034501 | 13 | 153 | 0.0 | 0.0 | 0.00 | 0.00 | 0.00 | 31 | 1015.8 |
| 20260502033058 | 14 | 154 | 0.0 | 0.0 | 0.00 | 0.00 | 0.00 | 29 | 1015.8 |
| 20260502031555 | 15 | 153 | 0.0 | 0.0 | 0.00 | 0.00 | 0.00 | 29 | 1015.7 |
| 20260502030034 | 16 | 154 | 0.0 | 0.0 | 0.00 | 0.00 | 0.00 | 25 | 1015.6 |
| 20260502024531 | 17 | 153 | 0.0 | 0.0 | 0.00 | 0.00 | 0.00 | 25 | 1015.4 |
| 20260502023014 | 18 | 153 | 0.0 | 0.0 | 0.00 | 0.00 | 0.00 | 22 | 1015.2 |
| 20260502021510 | 18 | 153 | 0.0 | 0.0 | 0.00 | 0.00 | 0.00 | 21 | 1015.2 |
| 20260502020007 | 19 | 153 | 0.0 | 0.0 | 0.00 | 0.00 | 0.00 | 21 | 1015.1 |
| 20260502014506 | 19 | 154 | 0.0 | 3.2 | 0.00 | 0.00 | 0.00 | 20 | 1015.1 |
| 20260502013006 | 20 | 155 | 0.0 | 4.8 | 0.00 | 0.00 | 0.00 | 20 | 1015.0 |
| 20260502011505 | 20 | 161 | 0.0 | 0.0 | 0.00 | 0.00 | 0.00 | 19 | 1015.1 |
| 20260502010003 | 20 | 164 | 0.0 | 8.0 | 0.00 | 0.00 | 0.00 | 17 | 1015.2 |
| 20260502004506 | 20 | 159 | 0.0 | 3.2 | 0.00 | 0.00 | 0.00 | 17 | 1015.2 |
| 20260502003050 | 20 | 141 | 0.0 | 6.4 | 0.00 | 0.00 | 0.00 | 17 | 1015.4 |
| 20260502001549 | 20 | 130 | 0.0 | 4.8 | 0.00 | 0.00 | 0.00 | 18 | 1015.5 |
| 20260502000057 | 20 | 105 | 0.0 | 0.0 | 0.00 | 0.00 | 0.00 | 17 | 1015.5 |
| 20260501234547 | 20 | 192 | 0.0 | 6.4 | 0.00 | 0.00 | 0.00 | 17 | 1015.6 |
| 20260501233047 | 21 | 181 | 0.0 | 4.8 | 0.00 | 0.00 | 0.00 | 17 | 1015.6 |
| 20260501231557 | 21 | 355 | 0.0 | 4.8 | 0.00 | 0.00 | 0.00 | 18 | 1015.6 |
| 20260501230046 | 20 | 121 | 0.0 | 8.0 | 0.00 | 0.00 | 0.00 | 18 | 1015.7 |
| 20260501224547 | 20 | 105 | 1.6 | 14.5 | 0.00 | 0.00 | 0.00 | 18 | 1015.8 |
| 20260501223026 | 20 | 171 | 0.0 | 12.9 | 0.00 | 0.00 | 0.00 | 19 | 1015.9 |
| 20260501221524 | 20 | 140 | 0.0 | 9.7 | 0.00 | 0.00 | 0.00 | 21 | 1016.2 |
| 20260501220022 | 20 | 221 | 0.0 | 3.2 | 0.00 | 0.00 | 0.00 | 20 | 1016.4 |
| 20260501214520 | 20 | 152 | 3.2 | 12.9 | 0.00 | 0.00 | 0.00 | 21 | 1016.6 |
| 20260501213019 | 20 | 177 | 1.6 | 14.5 | 0.00 | 0.00 | 0.00 | 21 | 1016.8 |
| 20260501211516 | 19 | 157 | 0.0 | 3.2 | 0.00 | 0.00 | 0.00 | 21 | 1017.0 |
| 20260501210013 | 19 | 143 | 0.0 | 8.0 | 0.00 | 0.00 | 0.00 | 22 | 1017.2 |
| 20260501204512 | 18 | 115 | 0.0 | 1.6 | 0.00 | 0.00 | 0.00 | 21 | 1017.4 |
| 20260501203100 | 19 | 83 | 0.0 | 14.5 | 0.00 | 0.00 | 0.00 | 22 | 1017.5 |
| 20260501201557 | 18 | 121 | 0.0 | 4.8 | 0.00 | 0.00 | 0.00 | 22 | 1017.7 |
| 20260501200055 | 18 | 262 | 0.0 | 1.6 | 0.00 | 0.00 | 0.00 | 22 | 1017.9 |
| 20260501194559 | 18 | 13 | 0.0 | 4.8 | 0.00 | 0.00 | 0.00 | 24 | 1018.1 |
| 20260501193050 | 17 | 231 | 0.0 | 1.6 | 0.00 | 0.00 | 0.00 | 24 | 1018.2 |
| 20260501191548 | 17 | 71 | 0.0 | 4.8 | 0.00 | 0.00 | 0.00 | 25 | 1018.4 |
| 20260501190046 | 17 | 244 | 0.0 | 12.9 | 0.00 | 0.00 | 0.00 | 24 | 1018.4 |
| 20260501184543 | 16 | 289 | 0.0 | 1.6 | 0.00 | 0.00 | 0.00 | 25 | 1018.6 |
| 20260501183030 | 16 | 317 | 0.0 | 8.0 | 0.00 | 0.00 | 0.00 | 26 | 1018.9 |
| 20260501181530 | 16 | 338 | 0.0 | 6.4 | 0.00 | 0.00 | 0.00 | 26 | 1019.2 |